Regional Weather Roundup
Issued by NWS

Home | Current Version | Previous Version | Graphics & Text | Print | Product List | Glossary Off
Versions: 1 2 3 4 5 6 7 8 9 10 11 12 13 14 15 16 17 18 19 20 21 22 23 24 25 26 27 28 29 30 31 32 33 34 35 36 37 38 39 40 41 42 43 44 45 46 47 48 49 50

000
ASUS43 KTOP 250059
RWRKS

WEATHER ROUNDUP FOR KANSAS
NATIONAL WEATHER SERVICE GOODLAND KS
800 PM CDT THU MAY 24 2018

NOTE:  "FAIR" INDICATES FEW OR NO CLOUDS BELOW 12,000 FEET WITH NO
SIGNIFICANT WEATHER AND/OR OBSTRUCTIONS TO VISIBILITY.

KSZ001>006-013>018-027>032-041>047-250200-
NORTHWEST KANSAS

CITY           SKY/WX    TMP DP  RH WIND       PRES   REMARKS
GOODLAND       CLOUDY    77  44  30 S9        29.96F
HAYS           CLEAR     81  66  60 SE15      29.92R
HILL CITY      CLOUDY    82  65  56 S8        29.91R
RUSSELL        CLEAR     82  67  60 S16       29.91S
$$

KSZ061>065-074>080-084>089-250200-
SOUTHWEST KANSAS

CITY           SKY/WX    TMP DP  RH WIND       PRES   REMARKS
DODGE CITY     CLEAR     85  62  46 S14       29.93S
GARDEN CITY    CLOUDY    81  56  42 W8        29.95R
GREAT BEND     CLEAR     80  67  64 SE10      29.93F
LIBERAL        CLEAR     87  56  34 S14       29.93S
$$

KSZ066>073-081>083-090>101-250200-
SOUTHEAST KANSAS

CITY           SKY/WX    TMP DP  RH WIND       PRES   REMARKS
CHANUTE        CLOUDY    78  70  76 SE5       29.99S
COFFEYVILLE    CLEAR     80  71  74 SE6       29.97S
HUTCHINSON     CLEAR     84  64  50 S10       29.94S
MEDICINE LODGE   N/A     83  67  58 S12G23    29.92F
NEWTON         CLOUDY    77  67  71 SE9       29.96F
PARSONS        MOCLDY    79  70  74 VRB5      30.00R
WICHITA INTL   MOCLDY    80  66  62 S12       29.94S
WICHITA JABRA  PTCLDY    75  69  81 SE9       29.95F
WICHITA MCCONL CLOUDY    79  65  62 S12       29.95F
WINFIELD       CLOUDY    75  66  73 S8        29.96F
$$

KSZ007>012-019>026-033>040-048>060-102>105-250200-
NORTHEAST KANSAS

CITY           SKY/WX    TMP DP  RH WIND       PRES   REMARKS
CONCORDIA      CLOUDY    79  63  57 S9        29.93S
EMPORIA        CLOUDY    68  65  90 SE8       29.99F
LAWRENCE       LGT RAIN  69  67  93 SE5       29.99S
MANHATTAN      MOCLDY    76  64  66 S8        29.95F
OLATHE IND     LGT RAIN  67  65  93 S10       30.01F
OLATHE EXE     LGT RAIN  66  65  96 S6        30.01F
SALINA         CLEAR     84  64  50 SE9       29.93F
TOPEKA BILLARD LGT RAIN  70  68  93 E5        29.98R
TOPEKA FORBES  LGT RAIN  70  67  90 SE8       29.99R
$$




USA.gov is the U.S. government's official web portal to all federal, state and local government web resources and services.